| time (UTC) | temp F | wind direction | speed MPH | gust MPH | rain 1hr in | rain 24hr in | rain mn in | humidity % | barometer mb |
| 20260510180604 | 61 | 351 | 4.0 | 7.0 | 0.00 | 0.00 | 0.00 | 68 | 1009.3 |
| 20260510180106 | 61 | 358 | 4.0 | 11.0 | 0.00 | 0.00 | 0.00 | 68 | 1009.3 |
| 20260510175104 | 62 | 2 | 4.0 | 9.0 | 0.00 | 0.00 | 0.00 | 67 | 1009.3 |
| 20260510174104 | 62 | 339 | 4.0 | 7.0 | 0.00 | 0.00 | 0.00 | 66 | 1009.4 |
| 20260510173603 | 62 | 2 | 4.0 | 9.0 | 0.00 | 0.00 | 0.00 | 65 | 1009.4 |
| 20260510173104 | 62 | 21 | 4.0 | 9.0 | 0.00 | 0.00 | 0.00 | 65 | 1009.4 |
| 20260510172603 | 63 | 350 | 4.0 | 9.0 | 0.00 | 0.00 | 0.00 | 64 | 1009.4 |
| 20260510171602 | 63 | 15 | 4.0 | 9.0 | 0.00 | 0.00 | 0.00 | 63 | 1009.4 |
| 20260510165102 | 65 | 8 | 4.0 | 7.0 | 0.00 | 0.00 | 0.00 | 59 | 1009.4 |
| 20260510164604 | 65 | 10 | 2.0 | 5.0 | 0.00 | 0.00 | 0.00 | 58 | 1009.4 |
| 20260510164104 | 65 | 10 | 2.0 | 7.0 | 0.00 | 0.00 | 0.00 | 58 | 1009.5 |
| 20260510163605 | 65 | 351 | 4.0 | 7.0 | 0.00 | 0.00 | 0.00 | 57 | 1009.5 |
| 20260510163103 | 65 | 16 | 4.0 | 7.0 | 0.00 | 0.00 | 0.00 | 57 | 1009.5 |
| 20260510162603 | 65 | 39 | 4.0 | 9.0 | 0.00 | 0.00 | 0.00 | 57 | 1009.5 |
| 20260510161603 | 65 | 25 | 2.0 | 5.0 | 0.00 | 0.00 | 0.00 | 57 | 1009.6 |
| 20260510161105 | 66 | 8 | 4.0 | 11.0 | 0.00 | 0.00 | 0.00 | 57 | 1009.7 |
| 20260510160104 | 66 | 354 | 4.0 | 7.0 | 0.00 | 0.00 | 0.00 | 56 | 1009.9 |
| 20260510155603 | 66 | 357 | 2.0 | 7.0 | 0.00 | 0.00 | 0.00 | 56 | 1010.0 |
| 20260510155102 | 66 | 25 | 2.0 | 11.0 | 0.00 | 0.00 | 0.00 | 56 | 1010.0 |
| 20260510154602 | 66 | 39 | 4.0 | 18.0 | 0.00 | 0.00 | 0.00 | 56 | 1010.0 |
| 20260510154105 | 67 | 80 | 4.0 | 18.0 | 0.00 | 0.00 | 0.00 | 55 | 1010.1 |
| 20260510153604 | 67 | 359 | 4.0 | 7.0 | 0.00 | 0.00 | 0.00 | 55 | 1010.0 |
| 20260510153104 | 67 | 340 | 4.0 | 5.0 | 0.00 | 0.00 | 0.00 | 55 | 1010.1 |
| 20260510152102 | 68 | 358 | 4.0 | 12.0 | 0.00 | 0.00 | 0.00 | 53 | 1010.2 |
| 20260510151602 | 68 | 61 | 4.0 | 12.0 | 0.00 | 0.00 | 0.00 | 54 | 1010.3 |
| 20260510145601 | 67 | 10 | 2.0 | 11.0 | 0.00 | 0.00 | 0.00 | 52 | 1010.7 |
| 20260510145103 | 67 | 8 | 4.0 | 12.0 | 0.00 | 0.00 | 0.00 | 51 | 1010.7 |
| 20260510144602 | 68 | 340 | 4.0 | 12.0 | 0.00 | 0.00 | 0.00 | 50 | 1010.8 |
| 20260510144101 | 68 | 47 | 4.0 | 12.0 | 0.00 | 0.00 | 0.00 | 53 | 1010.9 |
| 20260510143604 | 68 | 116 | 4.0 | 12.0 | 0.00 | 0.00 | 0.00 | 52 | 1010.9 |
| 20260510143102 | 68 | 193 | 4.0 | 11.0 | 0.00 | 0.00 | 0.00 | 50 | 1011.0 |
| 20260510142612 | 69 | 358 | 4.0 | 12.0 | 0.00 | 0.00 | 0.00 | 50 | 1011.0 |
| 20260510142104 | 69 | 353 | 4.0 | 12.0 | 0.00 | 0.00 | 0.00 | 50 | 1011.0 |
| 20260510141603 | 69 | 116 | 4.0 | 11.0 | 0.00 | 0.00 | 0.00 | 51 | 1011.0 |
| 20260510141105 | 69 | 327 | 2.0 | 7.0 | 0.00 | 0.00 | 0.00 | 51 | 1011.1 |
| 20260510135609 | 68 | 112 | 4.0 | 11.0 | 0.00 | 0.00 | 0.00 | 49 | 1011.3 |
| 20260510134604 | 68 | 351 | 5.0 | 22.0 | 0.00 | 0.00 | 0.00 | 49 | 1011.3 |
| 20260510132102 | 68 | 106 | 4.0 | 18.0 | 0.00 | 0.00 | 0.00 | 52 | 1011.5 |
| 20260510131601 | 68 | 35 | 5.0 | 16.0 | 0.00 | 0.00 | 0.00 | 51 | 1011.7 |
| 20260510131101 | 68 | 95 | 5.0 | 22.0 | 0.00 | 0.00 | 0.00 | 53 | 1011.8 |
| 20260510130606 | 67 | 168 | 5.0 | 22.0 | 0.00 | 0.00 | 0.00 | 52 | 1011.8 |
| 20260510125607 | 68 | 99 | 4.0 | 22.0 | 0.00 | 0.00 | 0.00 | 50 | 1011.9 |
| 20260510125059 | 69 | 66 | 4.0 | 7.0 | 0.00 | 0.00 | 0.00 | 52 | 1011.9 |
| 20260510124557 | 68 | 162 | 4.0 | 7.0 | 0.00 | 0.00 | 0.00 | 54 | 1011.9 |
| 20260510124057 | 67 | 350 | 4.0 | 7.0 | 0.00 | 0.00 | 0.00 | 54 | 1012.1 |
| 20260510123057 | 67 | 3 | 5.0 | 16.0 | 0.00 | 0.00 | 0.00 | 51 | 1012.2 |
| 20260510122553 | 67 | 170 | 5.0 | 16.0 | 0.00 | 0.00 | 0.00 | 51 | 1012.2 |
| 20260510122059 | 68 | 164 | 5.0 | 14.0 | 0.00 | 0.00 | 0.00 | 51 | 1012.3 |
| 20260510121552 | 68 | 168 | 4.0 | 14.0 | 0.00 | 0.00 | 0.00 | 51 | 1012.5 |
| 20260510121056 | 68 | 356 | 4.0 | 16.0 | 0.00 | 0.00 | 0.00 | 53 | 1012.5 |
| 20260510120552 | 67 | 128 | 4.0 | 16.0 | 0.00 | 0.00 | 0.00 | 53 | 1012.6 |
| 20260510120051 | 68 | 141 | 2.0 | 7.0 | 0.00 | 0.00 | 0.00 | 53 | 1012.7 |
| 20260510115552 | 67 | 35 | 4.0 | 12.0 | 0.00 | 0.00 | 0.00 | 53 | 1012.7 |
| 20260510115051 | 67 | 67 | 4.0 | 12.0 | 0.00 | 0.00 | 0.00 | 53 | 1012.7 |
| 20260510114552 | 68 | 3 | 4.0 | 9.0 | 0.00 | 0.00 | 0.00 | 53 | 1012.8 |
| 20260510114048 | 68 | 126 | 4.0 | 18.0 | 0.00 | 0.00 | 0.00 | 54 | 1012.8 |
| 20260510113041 | 67 | 224 | 5.0 | 20.0 | 0.00 | 0.00 | 0.00 | 53 | 1012.9 |
| 20260510112540 | 66 | 100 | 4.0 | 20.0 | 0.00 | 0.00 | 0.00 | 54 | 1013.0 |
| 20260510112039 | 67 | 359 | 4.0 | 9.0 | 0.00 | 0.00 | 0.00 | 57 | 1013.0 |
| 20260510111035 | 67 | 350 | 2.0 | 16.0 | 0.00 | 0.00 | 0.00 | 55 | 1013.3 |
| 20260510110536 | 67 | 272 | 4.0 | 16.0 | 0.00 | 0.00 | 0.00 | 57 | 1013.3 |
| 20260510110037 | 66 | 341 | 5.0 | 18.0 | 0.00 | 0.00 | 0.00 | 57 | 1013.4 |
| 20260510105032 | 66 | 118 | 4.0 | 16.0 | 0.00 | 0.00 | 0.00 | 58 | 1013.4 |
| 20260510104531 | 65 | 87 | 4.0 | 16.0 | 0.00 | 0.00 | 0.00 | 60 | 1013.4 |
| 20260510104032 | 65 | 327 | 4.0 | 14.0 | 0.00 | 0.00 | 0.00 | 59 | 1013.4 |
| 20260510103532 | 65 | 301 | 4.0 | 14.0 | 0.00 | 0.00 | 0.00 | 59 | 1013.6 |
| 20260510102528 | 65 | 62 | 4.0 | 11.0 | 0.00 | 0.00 | 0.00 | 60 | 1013.6 |
| 20260510102030 | 65 | 81 | 4.0 | 11.0 | 0.00 | 0.00 | 0.00 | 60 | 1013.8 |
| 20260510101531 | 65 | 10 | 4.0 | 9.0 | 0.00 | 0.00 | 0.00 | 60 | 1013.7 |
| 20260510101029 | 65 | 61 | 4.0 | 9.0 | 0.00 | 0.00 | 0.00 | 59 | 1013.7 |
| 20260510100531 | 65 | 358 | 4.0 | 9.0 | 0.00 | 0.00 | 0.00 | 60 | 1013.7 |
| 20260510100029 | 64 | 102 | 4.0 | 20.0 | 0.00 | 0.00 | 0.00 | 61 | 1013.7 |
| 20260510095029 | 64 | 80 | 4.0 | 16.0 | 0.00 | 0.00 | 0.00 | 63 | 1013.8 |
| 20260510094532 | 64 | 42 | 4.0 | 16.0 | 0.00 | 0.00 | 0.00 | 62 | 1013.9 |
| 20260510094029 | 64 | 6 | 4.0 | 11.0 | 0.00 | 0.00 | 0.00 | 62 | 1013.8 |
| 20260510093031 | 64 | 347 | 4.0 | 12.0 | 0.00 | 0.00 | 0.00 | 63 | 1013.8 |
| 20260510092530 | 63 | 308 | 4.0 | 14.0 | 0.00 | 0.00 | 0.00 | 64 | 1014.0 |
| 20260510092028 | 63 | 197 | 5.0 | 18.0 | 0.00 | 0.00 | 0.00 | 65 | 1014.0 |
| 20260510091528 | 63 | 141 | 7.0 | 18.0 | 0.00 | 0.00 | 0.00 | 65 | 1014.0 |
| 20260510091027 | 63 | 70 | 5.0 | 16.0 | 0.00 | 0.00 | 0.00 | 67 | 1014.2 |
| 20260510085526 | 63 | 1 | 4.0 | 12.0 | 0.00 | 0.00 | 0.00 | 66 | 1014.3 |
| 20260510085023 | 62 | 87 | 4.0 | 12.0 | 0.00 | 0.00 | 0.00 | 68 | 1014.3 |
| 20260510084523 | 62 | 145 | 4.0 | 12.0 | 0.00 | 0.00 | 0.00 | 67 | 1014.4 |
| 20260510084023 | 62 | 114 | 4.0 | 18.0 | 0.00 | 0.00 | 0.00 | 68 | 1014.4 |
| 20260510083020 | 61 | 351 | 4.0 | 12.0 | 0.00 | 0.00 | 0.00 | 68 | 1014.4 |
| 20260510082519 | 61 | 351 | 4.0 | 14.0 | 0.00 | 0.00 | 0.00 | 69 | 1014.5 |
| 20260510082018 | 61 | 79 | 4.0 | 14.0 | 0.00 | 0.00 | 0.00 | 69 | 1014.5 |
| 20260510081519 | 61 | 228 | 2.0 | 11.0 | 0.00 | 0.00 | 0.00 | 70 | 1014.6 |
| 20260510081020 | 61 | 128 | 2.0 | 12.0 | 0.00 | 0.00 | 0.00 | 71 | 1014.6 |
| 20260510080514 | 60 | 106 | 4.0 | 16.0 | 0.00 | 0.00 | 0.00 | 72 | 1014.7 |
| 20260510080010 | 59 | 274 | 5.0 | 16.0 | 0.00 | 0.00 | 0.00 | 73 | 1014.6 |
| 20260510075507 | 59 | 97 | 4.0 | 16.0 | 0.00 | 0.00 | 0.00 | 73 | 1014.5 |
| 20260510075005 | 59 | 147 | 4.0 | 14.0 | 0.00 | 0.00 | 0.00 | 73 | 1014.7 |
| 20260510074506 | 59 | 354 | 4.0 | 16.0 | 0.00 | 0.00 | 0.00 | 74 | 1014.7 |
| 20260510073507 | 58 | 356 | 2.0 | 7.0 | 0.00 | 0.00 | 0.00 | 75 | 1014.8 |
| 20260510072505 | 58 | 158 | 2.0 | 9.0 | 0.00 | 0.00 | 0.00 | 77 | 1014.8 |
| 20260510072005 | 58 | 112 | 2.0 | 12.0 | 0.00 | 0.00 | 0.00 | 78 | 1014.9 |
| 20260510071504 | 57 | 43 | 4.0 | 12.0 | 0.00 | 0.00 | 0.00 | 79 | 1014.9 |
| 20260510071007 | 57 | 56 | 2.0 | 12.0 | 0.00 | 0.00 | 0.00 | 80 | 1014.9 |
| 20260510070505 | 56 | 100 | 4.0 | 12.0 | 0.00 | 0.00 | 0.00 | 81 | 1014.9 |
| 20260510070006 | 56 | 333 | 2.0 | 12.0 | 0.00 | 0.00 | 0.00 | 81 | 1014.9 |
| 20260510065506 | 56 | 153 | 2.0 | 12.0 | 0.00 | 0.00 | 0.00 | 82 | 1014.9 |
| 20260510065004 | 56 | 152 | 2.0 | 12.0 | 0.00 | 0.00 | 0.00 | 83 | 1015.0 |
| 20260510064501 | 55 | 275 | 2.0 | 5.0 | 0.00 | 0.00 | 0.00 | 84 | 1015.0 |
| 20260510064003 | 55 | 164 | 2.0 | 5.0 | 0.00 | 0.00 | 0.00 | 84 | 1015.1 |
| 20260510063459 | 55 | 48 | 2.0 | 5.0 | 0.00 | 0.00 | 0.00 | 85 | 1015.1 |
| 20260510062957 | 54 | 56 | 2.0 | 5.0 | 0.00 | 0.00 | 0.00 | 86 | 1015.1 |
| 20260510062459 | 54 | 311 | 2.0 | 4.0 | 0.00 | 0.00 | 0.00 | 86 | 1015.1 |
| 20260510061957 | 54 | 85 | 2.0 | 4.0 | 0.00 | 0.00 | 0.00 | 87 | 1015.0 |
| 20260510061501 | 53 | 91 | 2.0 | 5.0 | 0.00 | 0.00 | 0.00 | 87 | 1015.0 |
| 20260510060944 | 53 | 143 | 2.0 | 7.0 | 0.00 | 0.00 | 0.00 | 87 | 1015.0 |
| 20260510060433 | 53 | 145 | 2.0 | 7.0 | 0.00 | 0.00 | 0.00 | 88 | 1015.0 |
| 20260510055933 | 53 | 97 | 2.0 | 7.0 | 0.00 | 0.00 | 0.00 | 88 | 1014.9 |
| 20260510055431 | 53 | 100 | 2.0 | 7.0 | 0.00 | 0.00 | 0.00 | 88 | 1014.9 |
| 20260510054435 | 52 | 60 | 2.0 | 4.0 | 0.00 | 0.00 | 0.00 | 88 | 1014.9 |
| 20260510053934 | 52 | 68 | 2.0 | 4.0 | 0.00 | 0.00 | 0.00 | 88 | 1014.9 |
| 20260510053431 | 52 | 68 | 2.0 | 5.0 | 0.00 | 0.00 | 0.00 | 88 | 1014.9 |
| 20260510052932 | 52 | 68 | 2.0 | 5.0 | 0.00 | 0.00 | 0.00 | 88 | 1014.9 |
| 20260510052432 | 52 | 85 | 2.0 | 4.0 | 0.00 | 0.00 | 0.00 | 88 | 1014.9 |
| 20260510051929 | 52 | 94 | 2.0 | 4.0 | 0.00 | 0.00 | 0.00 | 88 | 1014.9 |
| 20260510050416 | 51 | 106 | 0.0 | 4.0 | 0.00 | 0.00 | 0.00 | 87 | 1014.9 |
| 20260510045915 | 51 | 106 | 0.0 | 4.0 | 0.00 | 0.00 | 0.00 | 87 | 1014.9 |
| 20260510045416 | 51 | 106 | 0.0 | 9.0 | 0.00 | 0.00 | 0.00 | 87 | 1014.8 |
| 20260510044915 | 51 | 48 | 2.0 | 9.0 | 0.00 | 0.00 | 0.00 | 87 | 1014.9 |
| 20260510044414 | 51 | 77 | 0.0 | 4.0 | 0.00 | 0.00 | 0.00 | 87 | 1014.9 |
| 20260510043913 | 51 | 76 | 0.0 | 4.0 | 0.00 | 0.00 | 0.00 | 87 | 1014.8 |
| 20260510042905 | 51 | 92 | 0.0 | 5.0 | 0.00 | 0.00 | 0.00 | 87 | 1014.8 |
| 20260510042406 | 51 | 96 | 0.0 | 5.0 | 0.00 | 0.00 | 0.00 | 87 | 1014.8 |
| 20260510041903 | 51 | 81 | 0.0 | 0.0 | 0.00 | 0.00 | 0.00 | 87 | 1014.8 |
| 20260510041407 | 51 | 81 | 0.0 | 0.0 | 0.00 | 0.00 | 0.00 | 87 | 1014.9 |
| 20260510040905 | 51 | 81 | 0.0 | 0.0 | 0.00 | 0.00 | 0.00 | 87 | 1014.9 |
| 20260510040405 | 51 | 81 | 0.0 | 0.0 | 0.00 | 0.00 | 0.00 | 87 | 1014.8 |
| 20260510035904 | 51 | 81 | 0.0 | 0.0 | 0.00 | 0.00 | 0.00 | 87 | 1014.8 |
| 20260510035403 | 51 | 81 | 0.0 | 0.0 | 0.00 | 0.00 | 0.00 | 87 | 1014.8 |
| 20260510034906 | 51 | 73 | 0.0 | 0.0 | 0.00 | 0.00 | 0.00 | 87 | 1014.7 |
| 20260510034403 | 51 | 73 | 0.0 | 0.0 | 0.00 | 0.00 | 0.00 | 87 | 1014.7 |
| 20260510033905 | 51 | 73 | 0.0 | 0.0 | 0.00 | 0.00 | 0.00 | 86 | 1014.8 |
| 20260510033407 | 51 | 73 | 0.0 | 2.0 | 0.00 | 0.00 | 0.00 | 86 | 1014.7 |
| 20260510032904 | 51 | 73 | 0.0 | 4.0 | 0.00 | 0.00 | 0.00 | 86 | 1014.8 |
| 20260510032403 | 51 | 73 | 0.0 | 4.0 | 0.00 | 0.00 | 0.00 | 86 | 1014.8 |
| 20260510030903 | 51 | 74 | 0.0 | 0.0 | 0.00 | 0.00 | 0.00 | 85 | 1015.1 |
| 20260510025902 | 51 | 74 | 0.0 | 0.0 | 0.00 | 0.00 | 0.00 | 85 | 1015.1 |
| 20260510025406 | 51 | 74 | 0.0 | 0.0 | 0.00 | 0.00 | 0.00 | 84 | 1015.1 |
| 20260510024906 | 51 | 74 | 0.0 | 0.0 | 0.00 | 0.00 | 0.00 | 84 | 1015.1 |
| 20260510024407 | 51 | 74 | 0.0 | 0.0 | 0.00 | 0.00 | 0.00 | 84 | 1015.1 |
| 20260510023849 | 51 | 74 | 0.0 | 0.0 | 0.00 | 0.00 | 0.00 | 84 | 1014.9 |
| 20260510023337 | 51 | 74 | 0.0 | 0.0 | 0.00 | 0.00 | 0.00 | 83 | 1014.9 |
| 20260510022331 | 51 | 74 | 0.0 | 0.0 | 0.00 | 0.00 | 0.00 | 83 | 1015.0 |
| 20260510021839 | 51 | 74 | 0.0 | 0.0 | 0.00 | 0.00 | 0.00 | 83 | 1015.1 |
| 20260510021334 | 51 | 74 | 0.0 | 0.0 | 0.00 | 0.00 | 0.00 | 82 | 1015.1 |
| 20260510020332 | 51 | 74 | 0.0 | 0.0 | 0.00 | 0.00 | 0.00 | 82 | 1015.0 |
| 20260510015330 | 52 | 74 | 0.0 | 0.0 | 0.00 | 0.00 | 0.00 | 81 | 1015.2 |
| 20260510014333 | 52 | 74 | 0.0 | 0.0 | 0.00 | 0.00 | 0.00 | 81 | 1015.2 |
| 20260510013835 | 52 | 74 | 0.0 | 0.0 | 0.00 | 0.00 | 0.00 | 81 | 1015.3 |
| 20260510013333 | 52 | 74 | 0.0 | 0.0 | 0.00 | 0.00 | 0.00 | 80 | 1015.3 |
| 20260510012334 | 53 | 74 | 0.0 | 0.0 | 0.00 | 0.00 | 0.00 | 80 | 1015.3 |
| 20260510011330 | 53 | 74 | 0.0 | 0.0 | 0.00 | 0.00 | 0.00 | 79 | 1015.5 |
| 20260510010829 | 53 | 74 | 0.0 | 0.0 | 0.00 | 0.00 | 0.00 | 79 | 1015.5 |
| 20260510010331 | 53 | 74 | 0.0 | 0.0 | 0.00 | 0.00 | 0.00 | 79 | 1015.4 |
| 20260510005823 | 53 | 74 | 0.0 | 0.0 | 0.00 | 0.00 | 0.00 | 79 | 1015.5 |
| 20260510004812 | 53 | 74 | 0.0 | 0.0 | 0.00 | 0.00 | 0.00 | 78 | 1015.5 |
| 20260510004303 | 53 | 74 | 0.0 | 0.0 | 0.00 | 0.00 | 0.00 | 78 | 1015.6 |
| 20260510003804 | 54 | 74 | 0.0 | 0.0 | 0.00 | 0.00 | 0.00 | 78 | 1015.5 |
| 20260510003307 | 54 | 74 | 0.0 | 0.0 | 0.00 | 0.00 | 0.00 | 77 | 1015.4 |
| 20260510002805 | 54 | 74 | 0.0 | 0.0 | 0.00 | 0.00 | 0.00 | 77 | 1015.5 |
| 20260510001805 | 54 | 74 | 0.0 | 0.0 | 0.00 | 0.00 | 0.00 | 77 | 1015.7 |
| 20260510000803 | 54 | 74 | 0.0 | 0.0 | 0.00 | 0.00 | 0.00 | 77 | 1015.6 |
| 20260510000311 | 54 | 74 | 0.0 | 0.0 | 0.00 | 0.00 | 0.00 | 75 | 1015.8 |
| 20260509235805 | 54 | 74 | 0.0 | 0.0 | 0.00 | 0.00 | 0.00 | 75 | 1015.8 |
| 20260509234806 | 55 | 74 | 0.0 | 0.0 | 0.00 | 0.00 | 0.00 | 75 | 1015.8 |
| 20260509234301 | 55 | 74 | 0.0 | 0.0 | 0.00 | 0.00 | 0.00 | 75 | 1015.8 |
| 20260509233758 | 55 | 74 | 0.0 | 0.0 | 0.00 | 0.00 | 0.00 | 75 | 1015.9 |
| 20260509233258 | 55 | 74 | 0.0 | 0.0 | 0.00 | 0.00 | 0.00 | 75 | 1015.9 |
| 20260509231735 | 55 | 74 | 0.0 | 0.0 | 0.00 | 0.00 | 0.00 | 74 | 1015.9 |
| 20260509230733 | 55 | 74 | 0.0 | 0.0 | 0.00 | 0.00 | 0.00 | 74 | 1015.8 |
| 20260509230232 | 55 | 74 | 0.0 | 0.0 | 0.00 | 0.00 | 0.00 | 73 | 1015.8 |
| 20260509225233 | 56 | 74 | 0.0 | 0.0 | 0.00 | 0.00 | 0.00 | 73 | 1015.8 |
| 20260509224736 | 56 | 74 | 0.0 | 0.0 | 0.00 | 0.00 | 0.00 | 73 | 1015.8 |
| 20260509224232 | 56 | 74 | 0.0 | 0.0 | 0.00 | 0.00 | 0.00 | 72 | 1015.9 |
| 20260509223233 | 56 | 74 | 0.0 | 0.0 | 0.00 | 0.00 | 0.00 | 72 | 1015.8 |
| 20260509222736 | 56 | 74 | 0.0 | 0.0 | 0.00 | 0.00 | 0.00 | 71 | 1015.9 |
| 20260509222234 | 56 | 74 | 0.0 | 0.0 | 0.00 | 0.00 | 0.00 | 71 | 1015.9 |
| 20260509221733 | 57 | 74 | 0.0 | 0.0 | 0.00 | 0.00 | 0.00 | 70 | 1016.0 |
| 20260509220237 | 57 | 74 | 0.0 | 0.0 | 0.00 | 0.00 | 0.00 | 69 | 1015.9 |
| 20260509215734 | 58 | 74 | 0.0 | 0.0 | 0.00 | 0.00 | 0.00 | 69 | 1016.0 |
| 20260509215234 | 58 | 74 | 0.0 | 0.0 | 0.00 | 0.00 | 0.00 | 69 | 1016.0 |
| 20260509214242 | 58 | 74 | 0.0 | 0.0 | 0.00 | 0.00 | 0.00 | 68 | 1015.9 |
| 20260509213731 | 58 | 74 | 0.0 | 0.0 | 0.00 | 0.00 | 0.00 | 68 | 1015.8 |
| 20260509213222 | 58 | 74 | 0.0 | 0.0 | 0.00 | 0.00 | 0.00 | 68 | 1015.8 |
| 20260509212716 | 58 | 74 | 0.0 | 0.0 | 0.00 | 0.00 | 0.00 | 68 | 1015.9 |
| 20260509211704 | 59 | 74 | 0.0 | 0.0 | 0.00 | 0.00 | 0.00 | 67 | 1015.7 |
| 20260509211206 | 59 | 74 | 0.0 | 0.0 | 0.00 | 0.00 | 0.00 | 67 | 1015.8 |
| 20260509210704 | 59 | 74 | 0.0 | 0.0 | 0.00 | 0.00 | 0.00 | 67 | 1015.8 |
| 20260509210205 | 59 | 74 | 0.0 | 0.0 | 0.00 | 0.00 | 0.00 | 66 | 1015.8 |
| 20260509205704 | 60 | 74 | 0.0 | 0.0 | 0.00 | 0.00 | 0.00 | 66 | 1015.7 |
| 20260509205206 | 60 | 74 | 0.0 | 0.0 | 0.00 | 0.00 | 0.00 | 66 | 1015.7 |
| 20260509204705 | 60 | 74 | 0.0 | 0.0 | 0.00 | 0.00 | 0.00 | 65 | 1015.8 |
| 20260509204204 | 60 | 74 | 0.0 | 0.0 | 0.00 | 0.00 | 0.00 | 65 | 1015.7 |
| 20260509203704 | 60 | 74 | 0.0 | 0.0 | 0.00 | 0.00 | 0.00 | 65 | 1015.8 |
| 20260509202703 | 61 | 74 | 0.0 | 2.0 | 0.00 | 0.00 | 0.00 | 64 | 1015.7 |
| 20260509202206 | 61 | 74 | 0.0 | 0.0 | 0.00 | 0.00 | 0.00 | 64 | 1015.7 |
| 20260509201703 | 61 | 74 | 0.0 | 0.0 | 0.00 | 0.00 | 0.00 | 63 | 1015.8 |
| 20260509201207 | 62 | 74 | 0.0 | 4.0 | 0.00 | 0.00 | 0.00 | 63 | 1015.8 |
| 20260509200705 | 62 | 74 | 0.0 | 4.0 | 0.00 | 0.00 | 0.00 | 62 | 1015.8 |
| 20260509200204 | 62 | 74 | 0.0 | 4.0 | 0.00 | 0.00 | 0.00 | 62 | 1015.7 |
| 20260509195658 | 62 | 73 | 0.0 | 4.0 | 0.00 | 0.00 | 0.00 | 62 | 1015.6 |
| 20260509195151 | 62 | 72 | 0.0 | 4.0 | 0.00 | 0.00 | 0.00 | 62 | 1015.4 |
| 20260509194133 | 63 | 72 | 0.0 | 2.0 | 0.00 | 0.00 | 0.00 | 62 | 1015.3 |
| 20260509193633 | 63 | 72 | 0.0 | 2.0 | 0.00 | 0.00 | 0.00 | 61 | 1015.4 |
| 20260509193132 | 63 | 72 | 0.0 | 2.0 | 0.00 | 0.00 | 0.00 | 61 | 1015.4 |
| 20260509192632 | 64 | 72 | 0.0 | 2.0 | 0.00 | 0.00 | 0.00 | 60 | 1015.4 |
| 20260509192135 | 64 | 72 | 0.0 | 2.0 | 0.00 | 0.00 | 0.00 | 59 | 1015.3 |
| 20260509191633 | 64 | 72 | 0.0 | 2.0 | 0.00 | 0.00 | 0.00 | 59 | 1015.4 |
| 20260509191132 | 65 | 72 | 0.0 | 2.0 | 0.00 | 0.00 | 0.00 | 58 | 1015.4 |
| 20260509190630 | 65 | 72 | 0.0 | 2.0 | 0.00 | 0.00 | 0.00 | 58 | 1015.4 |
| 20260509190133 | 65 | 72 | 0.0 | 2.0 | 0.00 | 0.00 | 0.00 | 58 | 1015.4 |
| 20260509185630 | 65 | 72 | 0.0 | 2.0 | 0.00 | 0.00 | 0.00 | 57 | 1015.3 |
| 20260509185130 | 65 | 72 | 0.0 | 2.0 | 0.00 | 0.00 | 0.00 | 57 | 1015.3 |
| 20260509184132 | 66 | 72 | 0.0 | 2.0 | 0.00 | 0.00 | 0.00 | 56 | 1015.3 |
| 20260509183131 | 67 | 72 | 0.0 | 2.0 | 0.00 | 0.00 | 0.00 | 55 | 1015.2 |
| 20260509182132 | 67 | 72 | 0.0 | 2.0 | 0.00 | 0.00 | 0.00 | 54 | 1015.4 |
| 20260509181632 | 67 | 72 | 0.0 | 5.0 | 0.00 | 0.00 | 0.00 | 54 | 1015.4 |
| 20260509181130 | 67 | 72 | 0.0 | 5.0 | 0.00 | 0.00 | 0.00 | 53 | 1015.4 |